Vertical_Velocity
-1 1 -3 -1 11 -2 2 4 1 2 4 -1 -3 3 5 3 7 12 2 -1 -1 -3 -1 3 1 -2 -1 -2 -0 0 1 2 1 -2 1 -1 0 -1 -3 -2 -2 2 1 2 -1 -5 0 0 -1
-0 1 -3 2 6 -2 6 1 1 1 2 -2 -1 0 2 9 -1 2 1 1 1 -1 -3 -3 -0 1 -1 3 2 1 -1 0 1 -2 -3 -1 1 0 0 -2 -2 1 0 0 2 -1 3 0 -2
-1 -0 9 1 -1 -2 -0 1 -0 0 -2 2 2 1 1 6 1 1 -4 -1 6 1 2 -8 -2 -1 0 1 0 1 1 1 -0 -2 -2 -5 -2 6 2 2 2 -1 -3 1 4 3 2 -2 -1
5 5 1 3 1 6 -2 0 0 1 1 -2 -3 0 -3 1 1 -4 -3 0 3 6 3 -0 -4 -0 0 1 -0 0 -1 0 -2 1 3 0 -2 5 1 -1 2 -1 -1 0 1 3 2 5 3
1 -5 0 -1 4 2 1 1 -2 0 1 3 -0 8 1 -2 2 2 -3 1 -2 -0 -2 -2 1 -1 0 -0 -4 -1 -2 1 0 1 1 2 -0 0 2 -1 -1 -0 -1 -1 -1 2 0 -1 -0
9 -0 1 -0 3 2 2 -2 -1 -0 1 1 1 -2 5 2 -1 1 -4 0 -2 1 -0 -3 2 1 -0 3 4 0 1 -0 -0 2 1 2 2 3 2 -0 0 -2 0 -1 -1 -0 -2 -2 -0
-0 -2 2 -0 2 3 1 -1 0 -0 -0 5 -4 -2 3 3 -3 2 -3 -1 0 2 1 -4 -1 0 -2 0 -1 1 -0 -4 -1 -2 -1 -7 -9 -1 -2 1 -0 -3 -0 1 -3 -3 1 -1 -4
4 -1 1 1 1 7 2 1 -2 -0 6 -2 1 1 1 -4 1 0 -3 2 4 2 -1 -3 1 1 1 1 1 0 2 1 -6 -2 3 -10 -9 -8 2 -2 -2 2 1 -0 -2 -1 5 2 -3
-8 4 1 3 -1 4 1 -0 0 -2 -3 5 1 6 -2 -6 -1 3 -2 5 1 3 -1 -1 5 -0 -4 1 1 2 -0 0 1 6 -4 -4 8 -3 -0 -2 -3 -2 -3 -1 -0 -0 1 2 1
4 -3 3 1 1 2 -0 -1 -1 3 2 4 1 3 1 -1 -0 -3 -2 -1 -0 -1 -1 -1 -3 2 2 7 -0 1 1 2 -0 -1 -0 -0 -0 -1 -0 -1 -1 -1 -2 -5 -1 -2 1 1 5
-0 1 2 2 1 -1 -0 2 0 0 2 1 -1 0 1 0 2 -1 -4 -3 -2 -1 1 -2 -1 -1 -2 6 1 5 -4 1 -1 -0 -0 -0 -2 0 -0 11 2 0 -3 -3 3 0 -4 10 -3
2 -0 0 0 1 -0 0 1 1 -0 3 0 2 -0 -1 -0 -0 -3 -0 -0 -1 1 -1 2 3 -1 1 -1 -4 1 -1 1 1 0 -1 -1 -1 0 -2 -4 -2 -4 -2 1 -4 4 -4 2 3
1 1 -0 -0 -1 0 -2 0 1 1 1 -2 1 1 1 2 1 5 3 3 2 2 -0 1 2 -2 1 -2 3 3 -0 1 1 1 -1 -3 0 0 1 3 -0 -1 -3 2 -1 6 6 -2 2
1 -0 -0 -1 0 1 2 0 1 0 -1 -0 1 1 2 1 0 1 -0 -1 1 1 -1 3 2 2 -1 2 -2 2 -1 -6 5 -3 3 -1 -1 -2 -1 1 0 -0 -1 -3 3 4 2 2 -3
-0 3 1 0 -0 0 0 4 -1 -1 0 0 0 1 2 -2 1 0 2 0 -4 -4 -2 3 -3 -0 -0 -2 -0 0 -0 -0 2 1 6 -5 -4 5 6 6 -1 2 -3 -2 -2 1 11 -11 4
3 5 5 5 0 1 7 -4 3 -3 1 1 2 -1 1 1 -0 0 -0 3 4 1 3 -5 2 4 2 -10 -6 1 -6 7 1 -5 -8 -1 -4 -3 1 4 -2 3 -1 -1 3 1 5 -2 4
4 1 1 4 -1 0 6 -3 2 -1 2 1 0 -1 0 0 0 1 0 2 2 -0 -2 -1 -3 4 -1 7 -0 -3 2 -5 5 1 -1 6 0 -2 3 1 1 -4 1 -4 0 3 -2 5 -6
0 2 1 0 5 3 1 -4 0 -1 2 -0 -1 0 1 1 -2 -2 -1 1 -2 -3 -2 0 -0 1 -12 4 -5 2 2 -1 -3 2 1 5 -1 -2 -2 2 2 -2 -2 -2 3 -3 -0 -2 -4
-0 1 0 1 1 3 -1 -1 -1 -1 3 0 1 0 -1 0 0 1 1 3 0 5 2 5 1 -15 -22 1 -6 -2 0 -4 4 0 2 14 4 -4 -1 -2 -3 -1 -2 -3 -2 2 5 9 -1
1 1 0 2 1 7 -0 -4 -2 -0 -3 -1 -1 -1 -2 3 0 -1 0 4 -3 3 10 5 2 1 0 -2 3 -4 6 -1 0 -2 -3 10 1 -1 3 -2 3 5 6 -2 -2 -1 1 7 -1
-0 2 0 5 -2 1 3 -1 1 -3 1 1 -2 -1 1 -1 3 1 -2 4 -3 -2 -1 2 3 -3 7 4 4 5 2 -0 1 -1 0 1 -0 -1 4 0 1 -0 -3 5 -4 -2 -2 1 1
4 1 1 0 4 4 4 -4 1 -1 -1 1 -2 1 -2 1 -3 2 -1 1 -2 0 2 4 4 -1 -1 -1 6 0 3 4 1 4 1 -3 -2 -2 -0 -2 -4 1 -2 3 -2 -1 -0 -7 1
-8 1 2 1 1 7 3 8 -7 1 -2 -1 -1 -1 -1 0 1 -0 -2 -1 3 3 2 2 -1 -5 6 2 -3 -1 -4 -1 8 1 1 -1 -2 -2 -2 -3 3 4 -1 -1 -2 1 -2 2 -1
-2 4 2 2 4 8 -5 6 -10 2 2 -1 -1 -0 -1 1 -0 1 0 -1 -1 -1 1 -3 -2 -1 -2 -2 -3 -3 -0 4 3 1 -4 -2 -0 -3 -1 4 -0 -1 -1 3 -1 -1 -0 -4 0
8 9 2 9 11 -7 1 3 -6 -3 -1 2 0 -1 -2 -0 0 0 0 0 0 -2 -0 3 0 -3 -3 -2 -2 -3 1 3 1 -4 -3 -5 -0 -2 -3 -1 -3 3 -0 1 2 -2 1 -2 -0
-5 5 -0 -1 1 -2 3 -3 -6 3 -1 -2 -0 -1 0 2 3 0 -0 1 -2 -3 0 -0 -1 2 1 1 -1 0 1 -2 -0 0 6 6 0 2 -3 -3 2 0 3 2 -0 -0 -3 -4 -0
1 4 -7 8 1 10 -3 -6 -2 -1 -2 0 -1 1 1 0 4 0 0 1 -0 -1 1 -1 -0 2 0 -1 2 -2 -1 3 2 -3 -2 -4 3 -1 -0 -2 -1 -1 4 -0 4 -1 -4 -1 -5
16 -7 14 4 2 -2 -4 -2 -5 -3 -2 0 -0 -1 1 1 2 1 -1 0 0 -0 0 0 1 1 -1 2 0 -0 4 -2 -5 3 -2 -2 1 -3 -1 4 -1 2 1 1 2 1 0 1 -1
8 4 4 11 4 7 1 -5 3 -1 0 0 -1 -2 -0 0 -1 0 -0 0 -1 -0 2 2 -2 -0 -4 0 1 2 -1 -2 2 1 -1 3 -1 -1 -1 0 1 -1 3 4 2 4 7 -0 0
-1 -7 0 6 -8 -1 6 -20 -0 0 0 1 -1 0 2 -2 -1 -1 -2 -2 -1 -2 1 -2 -2 0 2 1 -2 -2 -3 2 3 1 1 -1 -2 -1 1 2 1 1 -1 4 3 4 10 5 2
Height
1495 1495 1496 1496 1494 1490 1504 1511 1512 1505 1506 1508 1509 1509 1508 1513 1513 1522 1530 1534 1538 1541 1544 1546 1548 1551 1553 1556 1558 1560 1563 1565 1567 1569 1571 1572 1573 1573 1574 1574 1574 1574 1575 1575 1575 1577 1577 1577 1577
1498 1497 1498 1495 1491 1501 1509 1504 1509 1505 1507 1510 1510 1512 1510 1517 1521 1525 1530 1535 1540 1542 1547 1549 1551 1553 1556 1558 1560 1562 1564 1566 1569 1570 1572 1574 1575 1576 1576 1576 1576 1576 1577 1577 1577 1577 1578 1579 1579
1498 1498 1497 1491 1494 1510 1509 1501 1505 1509 1509 1508 1508 1512 1514 1522 1526 1529 1532 1537 1542 1544 1548 1550 1553 1555 1558 1560 1562 1564 1566 1568 1570 1572 1573 1575 1576 1577 1578 1578 1578 1577 1578 1578 1578 1578 1579 1579 1580
1499 1500 1497 1488 1500 1502 1499 1500 1504 1505 1507 1509 1510 1513 1522 1526 1528 1530 1534 1539 1543 1546 1549 1550 1554 1557 1559 1561 1563 1565 1567 1569 1571 1573 1575 1575 1577 1578 1579 1579 1579 1579 1579 1579 1579 1579 1580 1580 1581
1499 1496 1492 1492 1501 1502 1502 1503 1506 1506 1507 1508 1509 1515 1523 1528 1530 1531 1536 1542 1545 1547 1550 1552 1555 1557 1560 1562 1564 1566 1568 1570 1573 1575 1576 1578 1579 1580 1580 1580 1581 1580 1580 1580 1581 1581 1582 1582 1582
1494 1493 1494 1500 1504 1502 1502 1505 1506 1506 1507 1511 1512 1516 1526 1531 1531 1534 1539 1543 1548 1550 1553 1554 1556 1559 1561 1564 1565 1567 1569 1571 1574 1575 1576 1579 1580 1580 1580 1580 1581 1581 1581 1581 1581 1581 1582 1583 1584
1491 1486 1492 1495 1502 1503 1501 1505 1505 1505 1508 1511 1514 1516 1530 1533 1534 1536 1540 1545 1549 1552 1554 1556 1559 1560 1562 1565 1567 1569 1570 1572 1574 1576 1577 1579 1579 1581 1580 1581 1581 1582 1582 1581 1582 1582 1582 1582 1584
1496 1490 1496 1493 1499 1504 1502 1504 1507 1507 1511 1514 1515 1516 1529 1530 1533 1536 1541 1546 1549 1553 1554 1557 1560 1562 1563 1565 1567 1570 1571 1572 1574 1576 1577 1578 1580 1581 1582 1581 1581 1582 1582 1582 1581 1582 1582 1583 1583
1499 1491 1498 1497 1496 1501 1503 1503 1508 1510 1511 1514 1518 1518 1520 1525 1532 1536 1540 1546 1549 1552 1554 1557 1561 1563 1565 1567 1568 1570 1572 1573 1575 1575 1577 1578 1577 1579 1580 1581 1581 1581 1582 1581 1581 1581 1582 1583 1583
1496 1489 1497 1495 1495 1495 1501 1503 1506 1508 1510 1515 1520 1521 1523 1527 1531 1534 1538 1542 1546 1550 1553 1557 1560 1564 1565 1569 1570 1572 1572 1575 1574 1575 1576 1577 1576 1576 1579 1580 1580 1580 1580 1580 1580 1581 1581 1581 1584
1499 1496 1498 1498 1498 1500 1501 1505 1506 1506 1507 1511 1516 1521 1524 1528 1532 1535 1539 1542 1544 1548 1552 1555 1559 1563 1567 1570 1572 1574 1573 1573 1575 1574 1575 1576 1576 1576 1578 1580 1580 1580 1578 1580 1581 1581 1580 1582 1583
1497 1499 1499 1499 1500 1502 1502 1503 1506 1508 1510 1512 1514 1519 1522 1526 1530 1533 1537 1540 1543 1547 1551 1555 1558 1560 1564 1568 1570 1573 1572 1571 1575 1574 1574 1574 1575 1575 1576 1576 1576 1576 1577 1578 1579 1579 1578 1579 1581
1496 1498 1499 1499 1501 1502 1503 1503 1504 1507 1510 1512 1513 1517 1521 1525 1529 1533 1536 1540 1543 1546 1550 1554 1556 1558 1562 1564 1567 1569 1569 1571 1575 1572 1573 1573 1576 1575 1575 1574 1573 1573 1573 1576 1576 1576 1575 1575 1577
1500 1499 1497 1498 1499 1500 1502 1502 1505 1508 1509 1512 1513 1516 1520 1523 1527 1531 1534 1538 1541 1544 1547 1552 1554 1557 1560 1563 1565 1566 1566 1569 1571 1572 1572 1571 1571 1571 1571 1571 1571 1572 1573 1574 1575 1573 1574 1576 1574
1500 1497 1495 1497 1499 1500 1503 1503 1502 1506 1509 1511 1513 1516 1519 1522 1525 1528 1531 1534 1536 1538 1542 1547 1552 1554 1555 1559 1563 1566 1567 1567 1568 1569 1568 1568 1568 1568 1568 1569 1569 1571 1570 1570 1572 1572 1573 1571 1575
1496 1495 1499 1496 1499 1501 1503 1500 1497 1506 1507 1509 1512 1516 1519 1521 1524 1527 1530 1533 1533 1536 1540 1545 1548 1550 1551 1553 1560 1565 1566 1568 1566 1565 1565 1566 1566 1566 1565 1567 1568 1570 1569 1570 1571 1570 1571 1571 1571
1494 1499 1502 1498 1497 1498 1501 1498 1501 1504 1504 1506 1510 1513 1516 1519 1522 1525 1528 1530 1530 1534 1536 1538 1544 1546 1547 1549 1557 1561 1564 1564 1565 1563 1564 1564 1564 1564 1564 1564 1566 1567 1568 1568 1569 1568 1569 1570 1569
1501 1499 1499 1499 1495 1497 1497 1497 1497 1501 1502 1503 1507 1509 1512 1515 1518 1521 1524 1526 1528 1530 1533 1537 1538 1540 1540 1549 1553 1557 1560 1561 1562 1562 1562 1562 1561 1562 1562 1562 1563 1565 1566 1567 1568 1567 1568 1569 1569
1495 1499 1499 1495 1495 1495 1494 1492 1488 1495 1500 1502 1502 1506 1509 1511 1514 1517 1519 1522 1524 1524 1528 1531 1530 1512 1539 1546 1550 1554 1557 1558 1558 1559 1559 1560 1559 1559 1559 1559 1560 1561 1564 1565 1566 1566 1566 1570 1570
1496 1498 1496 1494 1493 1494 1493 1494 1488 1492 1494 1496 1498 1501 1504 1506 1510 1513 1515 1517 1517 1519 1521 1525 1527 1532 1536 1544 1548 1551 1553 1554 1555 1557 1556 1557 1556 1555 1555 1556 1557 1559 1562 1562 1563 1565 1565 1569 1569
1493 1496 1499 1500 1492 1489 1492 1492 1488 1486 1491 1494 1495 1495 1498 1501 1504 1507 1511 1514 1514 1515 1517 1521 1526 1530 1534 1542 1545 1548 1550 1552 1552 1553 1554 1553 1553 1553 1553 1553 1555 1556 1558 1561 1561 1563 1566 1567 1568
1497 1493 1497 1497 1498 1500 1488 1505 1485 1480 1482 1487 1489 1491 1495 1497 1501 1503 1506 1510 1511 1514 1515 1519 1523 1528 1534 1539 1542 1545 1547 1549 1550 1550 1551 1550 1550 1549 1550 1550 1552 1554 1556 1559 1559 1561 1563 1565 1566
1496 1493 1494 1494 1495 1490 1485 1498 1481 1478 1479 1472 1477 1484 1489 1493 1497 1501 1504 1507 1511 1514 1516 1518 1521 1527 1534 1536 1540 1542 1544 1547 1548 1548 1548 1548 1548 1547 1548 1549 1550 1552 1553 1555 1557 1559 1559 1564 1565
1491 1495 1493 1490 1490 1502 1479 1491 1485 1473 1472 1472 1477 1480 1485 1490 1495 1499 1503 1506 1510 1513 1517 1519 1524 1528 1532 1535 1537 1540 1543 1544 1546 1546 1546 1547 1546 1546 1546 1546 1547 1549 1551 1553 1555 1556 1558 1560 1564
1493 1494 1503 1507 1500 1497 1482 1495 1481 1470 1466 1470 1473 1478 1483 1489 1493 1498 1502 1504 1508 1512 1516 1520 1523 1527 1530 1532 1536 1538 1540 1542 1543 1544 1546 1544 1544 1544 1543 1544 1545 1547 1548 1550 1552 1553 1556 1557 1560
1489 1484 1498 1515 1502 1487 1482 1496 1477 1465 1469 1473 1473 1475 1479 1486 1490 1495 1499 1503 1506 1511 1515 1519 1522 1525 1528 1530 1533 1536 1538 1541 1543 1543 1544 1544 1543 1542 1542 1543 1544 1544 1546 1547 1550 1552 1553 1556 1557
1483 1494 1474 1485 1481 1494 1480 1472 1463 1460 1464 1467 1472 1473 1477 1483 1488 1492 1497 1502 1505 1510 1514 1517 1520 1523 1526 1530 1532 1534 1536 1539 1541 1542 1543 1542 1541 1542 1542 1542 1542 1543 1544 1546 1547 1549 1551 1553 1554
1480 1473 1492 1485 1510 1510 1481 1481 1479 1469 1463 1461 1468 1470 1474 1480 1486 1491 1496 1500 1504 1508 1512 1516 1519 1522 1526 1530 1532 1534 1536 1537 1539 1539 1540 1540 1541 1541 1540 1541 1542 1543 1543 1544 1545 1546 1548 1549 1552
1484 1483 1480 1473 1478 1495 1496 1479 1453 1460 1459 1462 1460 1465 1469 1476 1483 1488 1493 1498 1503 1507 1511 1515 1518 1521 1525 1528 1531 1534 1535 1536 1538 1538 1538 1540 1539 1539 1539 1540 1540 1540 1542 1543 1544 1544 1546 1547 1549
1462 1467 1466 1484 1488 1477 1486 1482 1448 1456 1459 1461 1459 1461 1467 1474 1481 1486 1491 1497 1501 1505 1509 1512 1516 1520 1523 1526 1528 1531 1534 1537 1538 1539 1539 1539 1540 1540 1540 1540 1540 1540 1542 1543 1543 1543 1544 1546 1547